Back to catalog

SL-3 DEB

AliveSSO
NORAD 14209·DEBRIS·🇷🇺 Russia

Launched Jul 24, 1983 from Baikonur Cosmodrome

Loading…

Next Passes (next 24 hours)

TLE

FreshSource: Space-Track

Epoch: Sep 14, 2026, 10:35 UTC

1 14209U 83075C   26257.44146018  .00012203  00000-0  19258-3 0  9995
2 14209  97.2132 247.7964 0015424  80.0855 280.2139 15.53523759368099

Track SL-3 DEB in real time with AllMySat

Download on the App Store